Location: Beuerbach
(48.1459°N, 10.9174°E)
Time: 20:33:35
(UTC+00:00)

SL-16 R/B - Pass Details

Date: 11 August 2024
Orbit: 842 x 845 km, 71.0° (Epoch: 07 September)

Event Time Altitude Azimuth Distance (km) Brightness Sun altitude
Exits shadow 22:46:28 47° 94° (E) 1,108 2.6 -26.5°
Drops below altitude 10° 22:51:26 10° 37° (NE) 2,474 5.2 -26.6°
Sets 22:53:57 0° 32° (NNE) 3,414 6.1 -26.7°
